Miscellaneous Local Product
Issued by NWS North Platte, NE

Home | Current Version | Previous Version | Text Only | Print | Product List | Glossary On
Versions: 1 2 3 4 5 6 7 8 9 10 11 12 13 14 15 16 17 18 19 20 21 22 23 24 25 26 27 28 29 30 31 32 33 34 35 36 37 38 39 40 41 42 43 44 45 46 47 48 49 50
000
AXUS43 KLBF 182110
MISLBF


WESTERN AND NORTH CENTRAL NEBRASKA HOURLY WEATHER ROUNDUP
NATIONAL WEATHER SERVICE NORTH PLATTE NE
400 PM CDT WED OCT 18 2017

NOTE: "FAIR" INDICATES FEW OR NO CLOUDS BELOW 12,000 FEET WITH NO
SIGNIFICANT WEATHER AND/OR OBSTRUCTIONS TO VISIBILITY.

NOTE: STATIONS NOT REPORTING VARIABLES SUCH AS SKY/WEATHER OR
PRESSURE ARE PROVIDED BY RAWS AND APRS NETWORKS AND ARE NOT UNDER
NATIONAL WEATHER SERVICE QUALITY CONTROL.

...OBSERVATIONS IN AND NEAR THE EASTERN PANHANDLE OF NEBRASKA...

CITY           SKY/WX    TMP DP  RH WIND       PRES   REMARKS
PINE RIDGE     SUNNY     67  28  23 VRB5      30.07F
GORDON         FAIR      65  25  22 E3        30.09S
CHADRON        SUNNY     69  26  20 N6        30.06F
ALLIANCE       SUNNY     70  27  20 SE8       30.09S
SIDNEY         SUNNY     73  21  14 VRB5      30.11F
CRESCENT LAKE    N/A     71  28  20 E6G14       N/A
$$

...OBSERVATIONS IN NORTHERN NEBRASKA AND FAR SOUTHERN SOUTH DAKOTA...

CITY           SKY/WX    TMP DP  RH WIND       PRES   REMARKS
WINNER         FAIR      68  32  26 NW12      30.05S
VALENTINE      SUNNY     69  30  23 N9        30.06F
THEDFORD       SUNNY     71  33  24 NE12G18   30.07S
AINSWORTH      SUNNY     67  36  32 NE9       30.07S
O`NEILL        SUNNY     70  37  30 N8G16     30.04R
ORD            SUNNY     72  31  22 N13G24    30.01R
BROKEN BOW     SUNNY     72  37  28 N15       30.03R
VALENTINE NWR    N/A     68  30  24 NE8G17      N/A
HALSEY           N/A     71  31  22 N8G15       N/A
BUTTE            N/A     68  35  29 N10         N/A
CHAMBERS         N/A     70  37  29 N3          N/A
EWING            N/A     71  38  30 N6G14       N/A
$$

...OBSERVATIONS IN SOUTHWEST NEBRASKA AND FAR NORTHEAST COLORADO...

CITY           SKY/WX    TMP DP  RH WIND       PRES   REMARKS
WRAY           FAIR      79  18  10 NE3       30.05F
HOLYOKE        FAIR      79  23  12 E7        30.07S
IMPERIAL       SUNNY     78  22  12 NE13      30.05S
OGALLALA       SUNNY     75  27  16 NE9       30.06S
NORTH PLATTE   SUNNY     75  33  21 NE16      30.04S
MCCOOK         SUNNY     78  32  18 NE16      30.01R
LEXINGTON      SUNNY     74  35  24 NE20      30.02R
STAPLETON        N/A     69  35  29 NE5G12      N/A
GOTHENBURG       N/A     73  30  20 N12         N/A
CALLAWAY         N/A     73  37  26 NE16        N/A
$$

...OBSERVATIONS IN CENTRAL LINCOLN COUNTY AREA...

CITY           SKY/WX    TMP DP  RH WIND       PRES   REMARKS
N.P. AIRPORT   SUNNY     75  33  21 NE16      30.04S
N.P. DOWNTOWN    N/A     73  36  26 NE7         N/A
N.P. SOUTHEAST   N/A     73  34  24 NE6G15      N/A
N.P. HILLCREST   N/A     72  33  24 NE14        N/A
$$

...SOME OBSERVATIONS FROM AROUND THE REGION...

CITY           SKY/WX    TMP DP  RH WIND       PRES   REMARKS
DENVER         MOSUNNY   77   9   7 N5        30.13F
LIMON          SUNNY     76  13   9 E6        30.13F
ASPEN          SUNNY     69   0   6 N9        30.28F
LARAMIE        SUNNY     67   4   8 SW8       30.20F
CASPER         SUNNY     70  11  10 SW18G24   30.09F
CHEYENNE       SUNNY     72   9   8 NW7       30.15F
SCOTTSBLUFF    SUNNY     73  25  16 E10       30.08F
GRAND ISLAND   SUNNY     77  35  21 N16       29.97R
OMAHA          MOSUNNY   76  48  37 VRB5      29.92R
SIOUX FALLS    PTSUNNY   72  37  28 N14G23    29.96R
PIERRE         SUNNY     63  22  20 NW12      30.03R
RAPID CITY     SUNNY     64  25  22 SE12      30.05F
BISMARCK       SUNNY     61  21  21 W16       29.97F
KANSAS CITY    PTSUNNY   74  49  41 SW16G25   29.99R
HILL CITY      CLOUDY    82  31  15 N8        29.98S
WICHITA        PTSUNNY   78  50  37 S13       29.99R
DODGE CITY     SUNNY     87  29  12 VRB3      29.98F
OKLAHOMA CITY  PTSUNNY   80  43  26 S17       30.01F
DALLAS         MOSUNNY   83  41  22 S10       30.05F
AMARILLO       SUNNY     79  41  25 SW14      30.03F
$$




USA.gov is the U.S. government's official web portal to all federal, state and local government web resources and services.